When you browse on this site, cookies collect data to enhance your experience and personalize the content and advertising you see.
Visit our Privacy Policy to learn more. By continuing to use the site, you agree to this use of cookies and data.
  • In Austria
  • List of Countries
  • For 7 days
  • Water Temperature
  • Satellite Maps
  • Weather Map
  • News
  • Weather Widgets
  • user-avatar
    Login

    Hourly Weather Yerevan

    Today, 26 June, Wednesday

    Time Temperature Precipitation Wind Pressure Humidity
    00:00 +25°C° 0.3 mm 2 mps 691 mmHg 61%
    01:00 +25°C° 0 mm 2 mps 691 mmHg 61%
    02:00 +24°C° 0 mm 2 mps 691 mmHg 62%
    03:00 +24°C° 0 mm 2 mps 691 mmHg 63%
    04:00 +24°C° 0.1 mm 2 mps 691 mmHg 61%
    05:00 +25°C° 0.1 mm 2 mps 691 mmHg 60%
    06:00 +25°C° 0.1 mm 2 mps 692 mmHg 59%
    07:00 +27°C° 0 mm 2 mps 692 mmHg 53%
    08:00 +29°C° 0 mm 2 mps 692 mmHg 47%
    09:00 +31°C° 0 mm 2 mps 692 mmHg 40%
    10:00 +33°C° 0 mm 1 mps 692 mmHg 36%
    11:00 +34°C° 0 mm 1 mps 692 mmHg 33%
    12:00 +36°C° 0 mm 1 mps 692 mmHg 30%
    13:00 +36°C° 0 mm 1 mps 692 mmHg 28%
    14:00 +37°C° 0 mm 1 mps 692 mmHg 26%
    15:00 +39°C° 0 mm 1 mps 691 mmHg 24%
    16:00 +37°C° 0.1 mm 2 mps 691 mmHg 30%
    17:00 +35°C° 0.1 mm 3 mps 691 mmHg 35%
    18:00 +33°C° 0.1 mm 5 mps 690 mmHg 41%
    19:00 +32°C° 0.1 mm 4 mps 690 mmHg 44%
    20:00 +29°C° 0.1 mm 3 mps 690 mmHg 48%
    21:00 +28°C° 0.1 mm 2 mps 691 mmHg 51%
    22:00 +27°C° 0.2 mm 2 mps 691 mmHg 54%
    23:00 +26°C° 0.2 mm 1 mps 690 mmHg 56%

    Tomorrow, 27 June, Thursday

    Time Temperature Precipitation Wind Pressure Humidity
    00:00 +25°C° 0.2 mm 1 mps 690 mmHg 59%
    01:00 +25°C° 0.3 mm 1 mps 690 mmHg 61%
    02:00 +24°C° 0.3 mm 2 mps 690 mmHg 63%
    03:00 +24°C° 0.3 mm 2 mps 690 mmHg 66%
    04:00 +24°C° 0.4 mm 2 mps 690 mmHg 65%
    05:00 +24°C° 0.4 mm 1 mps 690 mmHg 65%
    06:00 +25°C° 0.4 mm 1 mps 690 mmHg 64%
    07:00 +26°C° 0.1 mm 1 mps 690 mmHg 58%
    08:00 +28°C° 0.1 mm 1 mps 690 mmHg 51%
    09:00 +30°C° 0.1 mm 2 mps 690 mmHg 45%
    10:00 +31°C° 0.1 mm 2 mps 689 mmHg 40%
    11:00 +33°C° 0.1 mm 1 mps 689 mmHg 36%
    12:00 +34°C° 0.1 mm 1 mps 689 mmHg 32%
    13:00 +35°C° 0 mm 1 mps 689 mmHg 30%
    14:00 +36°C° 0 mm 2 mps 688 mmHg 28%
    15:00 +37°C° 0 mm 2 mps 688 mmHg 26%
    16:00 +35°C° 0.4 mm 3 mps 688 mmHg 31%
    17:00 +34°C° 0.4 mm 5 mps 687 mmHg 37%
    18:00 +32°C° 0.4 mm 6 mps 687 mmHg 42%
    19:00 +29°C° 0.4 mm 5 mps 687 mmHg 48%
    20:00 +27°C° 0.4 mm 3 mps 687 mmHg 54%
    21:00 +25°C° 0.4 mm 1 mps 687 mmHg 60%
    22:00 +25°C° 0 mm 1 mps 687 mmHg 61%
    23:00 +24°C° 0 mm 1 mps 687 mmHg 62%

    Day after tomorrow, 28 June, Friday

    Time Temperature Precipitation Wind Pressure Humidity
    00:00 +22°C° 0 mm 0 mps 687 mmHg 63%
    01:00 +24°C° 0 mm 1 mps 686 mmHg 64%
    02:00 +23°C° 0 mm 1 mps 686 mmHg 64%
    03:00 +23°C° 0 mm 1 mps 686 mmHg 65%
    04:00 +23°C° 0.2 mm 1 mps 686 mmHg 64%
    05:00 +24°C° 0.2 mm 1 mps 686 mmHg 64%
    06:00 +24°C° 0.2 mm 1 mps 686 mmHg 63%
    07:00 +26°C° 0.1 mm 1 mps 686 mmHg 58%
    08:00 +27°C° 0.1 mm 1 mps 685 mmHg 52%
    09:00 +29°C° 0.1 mm 1 mps 685 mmHg 47%
    10:00 +30°C° 0.1 mm 1 mps 685 mmHg 43%
    11:00 +32°C° 0.1 mm 1 mps 685 mmHg 39%
    12:00 +34°C° 0.1 mm 2 mps 684 mmHg 35%
    13:00 +34°C° 0.1 mm 2 mps 684 mmHg 34%
    14:00 +34°C° 0.1 mm 3 mps 683 mmHg 33%
    15:00 +35°C° 0.1 mm 3 mps 683 mmHg 32%
    16:00 +31°C° 0.6 mm 3 mps 683 mmHg 42%
    17:00 +28°C° 0.6 mm 3 mps 683 mmHg 53%
    18:00 +25°C° 0.6 mm 3 mps 683 mmHg 63%
    19:00 +24°C° 0.3 mm 3 mps 683 mmHg 67%
    20:00 +24°C° 0.3 mm 3 mps 683 mmHg 70%
    21:00 +22°C° 0.3 mm 3 mps 684 mmHg 74%
    22:00 +23°C° 0 mm 2 mps 684 mmHg 75%
    23:00 +21°C° 0 mm 2 mps 683 mmHg 75%

    29 June, Saturday

    Time Temperature Precipitation Wind Pressure Humidity
    00:00 +21°C° 0 mm 2 mps 683 mmHg 75%
    01:00 +21°C° 0 mm 2 mps 683 mmHg 75%
    02:00 +22°C° 0 mm 1 mps 683 mmHg 75%
    03:00 +22°C° 0 mm 1 mps 683 mmHg 75%
    04:00 +22°C° 0 mm 1 mps 683 mmHg 73%
    05:00 +22°C° 0 mm 1 mps 683 mmHg 70%
    06:00 +23°C° 0 mm 1 mps 683 mmHg 68%
    07:00 +24°C° 0 mm 1 mps 683 mmHg 62%
    08:00 +26°C° 0 mm 2 mps 683 mmHg 56%
    09:00 +27°C° 0 mm 3 mps 683 mmHg 50%
    10:00 +29°C° 0.1 mm 2 mps 683 mmHg 44%
    11:00 +30°C° 0.1 mm 2 mps 683 mmHg 39%
    12:00 +32°C° 0.1 mm 2 mps 683 mmHg 34%
    13:00 +34°C° 0 mm 2 mps 683 mmHg 32%
    14:00 +35°C° 0 mm 2 mps 682 mmHg 30%
    15:00 +35°C° 0 mm 3 mps 682 mmHg 28%
    16:00 +33°C° 0.7 mm 3 mps 682 mmHg 38%
    17:00 +29°C° 0.7 mm 4 mps 682 mmHg 48%
    18:00 +26°C° 0.7 mm 4 mps 681 mmHg 58%
    19:00 +22°C° 0.5 mm 4 mps 682 mmHg 71%
    20:00 +22°C° 0.5 mm 3 mps 683 mmHg 72%
    21:00 +23°C° 0.5 mm 2 mps 684 mmHg 73%
    22:00 +22°C° 0.4 mm 1 mps 684 mmHg 76%
    23:00 +22°C° 0.4 mm 1 mps 684 mmHg 79%

    30 June, Sunday

    Time Temperature Precipitation Wind Pressure Humidity
    00:00 +21°C° 0.4 mm 1 mps 684 mmHg 82%
    01:00 +21°C° 0 mm 1 mps 684 mmHg 81%
    02:00 +21°C° 0 mm 1 mps 684 mmHg 81%
    03:00 +21°C° 0 mm 1 mps 684 mmHg 80%
    04:00 +21°C° 0 mm 1 mps 684 mmHg 77%
    05:00 +21°C° 0 mm 1 mps 684 mmHg 73%
    06:00 +21°C° 0 mm 2 mps 684 mmHg 69%
    07:00 +23°C° 0 mm 2 mps 684 mmHg 64%
    08:00 +24°C° 0 mm 2 mps 684 mmHg 58%
    09:00 +26°C° 0 mm 2 mps 684 mmHg 53%
    10:00 +27°C° 0.2 mm 2 mps 684 mmHg 48%
    11:00 +29°C° 0.2 mm 2 mps 684 mmHg 43%
    12:00 +30°C° 0.2 mm 2 mps 684 mmHg 39%
    13:00 +31°C° 0.3 mm 2 mps 684 mmHg 37%
    14:00 +31°C° 0.3 mm 2 mps 684 mmHg 35%
    15:00 +32°C° 0.3 mm 2 mps 684 mmHg 33%
    16:00 +31°C° 0.2 mm 3 mps 684 mmHg 38%
    17:00 +30°C° 0.2 mm 3 mps 684 mmHg 42%
    18:00 +29°C° 0.2 mm 4 mps 684 mmHg 46%
    19:00 +27°C° 0.3 mm 5 mps 684 mmHg 53%
    20:00 +25°C° 0.3 mm 5 mps 684 mmHg 59%
    21:00 +21°C° 0.3 mm 6 mps 684 mmHg 65%
    22:00 +21°C° 0.2 mm 5 mps 684 mmHg 66%
    23:00 +20°C° 0.2 mm 5 mps 685 mmHg 67%

    1 July, Monday

    Time Temperature Precipitation Wind Pressure Humidity
    00:00 +20°C° 0.2 mm 4 mps 685 mmHg 68%
    01:00 +19°C° 0.1 mm 4 mps 685 mmHg 67%
    02:00 +19°C° 0.1 mm 4 mps 685 mmHg 66%
    03:00 +19°C° 0.1 mm 4 mps 685 mmHg 65%
    04:00 +19°C° 0 mm 4 mps 685 mmHg 63%
    05:00 +19°C° 0 mm 3 mps 685 mmHg 61%
    06:00 +19°C° 0 mm 3 mps 685 mmHg 59%
    07:00 +21°C° 0 mm 3 mps 685 mmHg 55%
    08:00 +22°C° 0 mm 3 mps 685 mmHg 50%
    09:00 +25°C° 0 mm 4 mps 685 mmHg 45%
    10:00 +26°C° 0.1 mm 4 mps 685 mmHg 41%
    11:00 +27°C° 0.1 mm 4 mps 686 mmHg 38%
    12:00 +28°C° 0.1 mm 4 mps 686 mmHg 34%
    13:00 +28°C° 0.1 mm 5 mps 685 mmHg 34%
    14:00 +29°C° 0.1 mm 5 mps 685 mmHg 33%
    15:00 +29°C° 0.1 mm 6 mps 685 mmHg 32%
    16:00 +28°C° 0.1 mm 5 mps 685 mmHg 34%
    17:00 +27°C° 0.1 mm 5 mps 686 mmHg 36%
    18:00 +27°C° 0.1 mm 5 mps 686 mmHg 39%
    19:00 +25°C° 0 mm 5 mps 686 mmHg 41%
    20:00 +23°C° 0 mm 5 mps 687 mmHg 44%
    21:00 +21°C° 0 mm 5 mps 688 mmHg 47%
    22:00 +21°C° 0 mm 5 mps 688 mmHg 47%
    23:00 +20°C° 0 mm 5 mps 688 mmHg 47%
    Show more